Time,TemperatureF,DewpointF,PressureIn,WindDirection,WindDirectionDegrees,WindSpeedMPH,WindSpeedGustMPH,Humidity,HourlyPrecipIn,Conditions,Clouds,dailyrainin,SoftwareType,DateUTC
2013-06-10 06:55:00,53.9,49.2,29.73,East,90,0.0,0.0,84,0.00,,---,0.00,VWS V14.00,2013-06-10 11:55:00,
2013-06-10 07:00:00,53.3,48.6,29.76,East,90,0.0,0.0,84,0.00,,---,0.00,VWS V14.00,2013-06-10 12:00:00,
2013-06-10 07:05:00,53.1,48.7,29.76,East,90,0.0,0.0,85,0.00,,---,0.00,VWS V14.00,2013-06-10 12:05:00,
2013-06-10 07:06:00,53.2,48.8,29.76,East,90,0.0,0.0,85,0.00,,---,0.00,VWS V14.00,2013-06-10 12:06:00,
2013-06-10 07:10:00,53.1,48.4,29.76,East,90,0.0,0.0,84,0.00,,---,0.00,VWS V14.00,2013-06-10 12:10:00,
2013-06-10 07:11:00,53.1,48.4,29.76,East,90,0.0,0.0,84,0.00,,---,0.00,VWS V14.00,2013-06-10 12:11:00,
2013-06-10 07:15:00,53.1,48.4,29.78,East,90,0.0,0.0,84,0.00,,---,0.00,VWS V14.00,2013-06-10 12:15:00,
2013-06-10 07:16:00,53.1,48.4,29.78,East,90,0.0,0.0,84,0.00,,---,0.00,VWS V14.00,2013-06-10 12:16:00,
2013-06-10 07:20:00,53.6,49.2,29.78,East,90,0.0,0.0,85,0.00,,---,0.00,VWS V14.00,2013-06-10 12:20:00,
2013-06-10 07:21:00,53.6,49.2,29.78,East,90,0.0,0.0,85,0.00,,---,0.00,VWS V14.00,2013-06-10 12:21:00,
2013-06-10 07:25:00,54.7,49.3,29.78,East,90,0.0,0.0,82,0.00,,---,0.00,VWS V14.00,2013-06-10 12:25:00,
2013-06-10 07:26:00,54.7,49.0,29.78,East,90,0.0,0.0,81,0.00,,---,0.00,VWS V14.00,2013-06-10 12:26:00,
2013-06-10 07:30:00,55.4,49.3,29.77,East,90,0.0,0.0,80,0.00,,---,0.00,VWS V14.00,2013-06-10 12:30:00,
2013-06-10 07:31:00,55.4,49.3,29.77,East,90,0.0,0.0,80,0.00,,---,0.00,VWS V14.00,2013-06-10 12:31:00,
2013-06-10 07:32:00,55.6,49.5,29.77,East,90,0.0,0.0,80,0.00,,---,0.00,VWS V14.00,2013-06-10 12:32:00,
2013-06-10 07:35:00,56.2,50.5,29.77,East,90,0.0,0.0,81,0.00,,---,0.00,VWS V14.00,2013-06-10 12:35:00,
2013-06-10 07:36:00,56.2,50.5,29.77,East,90,0.0,0.0,81,0.00,,---,0.00,VWS V14.00,2013-06-10 12:36:00,
2013-06-10 07:37:00,56.3,50.5,29.77,East,90,0.0,0.0,81,0.00,,---,0.00,VWS V14.00,2013-06-10 12:37:00,
2013-06-10 07:40:00,56.7,50.6,29.77,East,90,0.0,0.0,80,0.00,,---,0.00,VWS V14.00,2013-06-10 12:40:00,
2013-06-10 07:41:00,56.9,50.8,29.77,East,90,0.0,0.0,80,0.00,,---,0.00,VWS V14.00,2013-06-10 12:41:00,
2013-06-10 07:42:00,57.0,50.9,29.77,East,90,0.0,0.0,80,0.00,,---,0.00,VWS V14.00,2013-06-10 12:42:00,
2013-06-10 07:45:00,57.5,51.0,29.76,East,90,0.0,0.0,79,0.00,,---,0.00,VWS V14.00,2013-06-10 12:45:00,
2013-06-10 07:46:00,57.5,51.0,29.76,East,90,0.0,0.0,79,0.00,,---,0.00,VWS V14.00,2013-06-10 12:46:00,
2013-06-10 07:47:00,57.8,51.3,29.76,East,90,0.0,0.0,79,0.00,,---,0.00,VWS V14.00,2013-06-10 12:47:00,
2013-06-10 07:51:00,58.6,51.8,29.76,East,90,0.0,0.0,78,0.00,,---,0.00,VWS V14.00,2013-06-10 12:51:00,
2013-06-10 07:52:00,58.9,52.1,29.76,East,90,0.0,0.0,78,0.00,,---,0.00,VWS V14.00,2013-06-10 12:52:00,
2013-06-10 07:53:00,58.9,51.7,29.76,East,90,0.0,0.0,77,0.00,,---,0.00,VWS V14.00,2013-06-10 12:53:00,
2013-06-10 07:56:00,59.3,51.8,29.76,East,90,0.0,0.0,76,0.00,,---,0.00,VWS V14.00,2013-06-10 12:56:00,
2013-06-10 07:57:00,59.6,52.0,29.76,East,90,0.0,0.0,76,0.00,,---,0.00,VWS V14.00,2013-06-10 12:57:00,
2013-06-10 07:58:00,59.9,52.3,29.76,East,90,0.0,0.0,76,0.00,,---,0.00,VWS V14.00,2013-06-10 12:58:00,
2013-06-10 08:01:00,60.2,51.9,29.75,East,90,0.0,0.0,74,0.00,,---,0.00,VWS V14.00,2013-06-10 13:01:00,
2013-06-10 08:02:00,60.4,52.1,29.75,East,90,0.0,0.0,74,0.00,,---,0.00,VWS V14.00,2013-06-10 13:02:00,
2013-06-10 08:03:00,60.5,52.2,29.75,East,90,0.0,0.0,74,0.00,,---,0.00,VWS V14.00,2013-06-10 13:03:00,
2013-06-10 08:06:00,61.5,52.8,29.75,East,90,0.0,0.0,73,0.00,,---,0.00,VWS V14.00,2013-06-10 13:06:00,
2013-06-10 08:07:00,61.6,52.9,29.75,East,90,0.0,0.0,73,0.00,,---,0.00,VWS V14.00,2013-06-10 13:07:00,
2013-06-10 08:08:00,61.8,52.7,29.75,East,90,0.0,0.0,72,0.00,,---,0.00,VWS V14.00,2013-06-10 13:08:00,
2013-06-10 08:11:00,63.1,52.4,29.75,East,90,0.0,0.0,68,0.00,,---,0.00,VWS V14.00,2013-06-10 13:11:00,
2013-06-10 08:12:00,63.2,52.5,29.75,East,90,0.0,0.0,68,0.00,,---,0.00,VWS V14.00,2013-06-10 13:12:00,
2013-06-10 08:13:00,63.2,52.5,29.75,East,90,0.0,0.0,68,0.00,,---,0.00,VWS V14.00,2013-06-10 13:13:00,
2013-06-10 08:17:00,64.5,52.9,29.76,East,90,0.0,0.0,66,0.00,,---,0.00,VWS V14.00,2013-06-10 13:17:00,
2013-06-10 08:18:00,64.7,53.1,29.76,East,90,0.0,0.0,66,0.00,,---,0.00,VWS V14.00,2013-06-10 13:18:00,
2013-06-10 08:22:00,65.8,53.3,29.76,East,90,0.0,0.0,64,0.00,,---,0.00,VWS V14.00,2013-06-10 13:22:00,
2013-06-10 08:23:00,66.0,53.5,29.76,East,90,0.0,0.0,64,0.00,,---,0.00,VWS V14.00,2013-06-10 13:23:00,
2013-06-10 08:27:00,66.8,52.5,29.76,East,90,0.0,0.0,60,0.00,,---,0.00,VWS V14.00,2013-06-10 13:27:00,
2013-06-10 08:28:00,67.1,52.8,29.76,East,90,0.0,0.0,60,0.00,,---,0.00,VWS V14.00,2013-06-10 13:28:00,
2013-06-10 08:29:00,67.1,52.8,29.74,East,90,0.0,0.0,60,0.00,,---,0.00,VWS V14.00,2013-06-10 13:29:00,
2013-06-10 08:32:00,67.9,52.6,29.74,East,90,0.0,0.0,58,0.00,,---,0.00,VWS V14.00,2013-06-10 13:32:00,
2013-06-10 08:33:00,68.1,53.2,29.74,East,90,0.0,0.0,59,0.00,,---,0.00,VWS V14.00,2013-06-10 13:33:00,
2013-06-10 08:34:00,68.3,53.4,29.74,East,90,0.0,0.0,59,0.00,,---,0.00,VWS V14.00,2013-06-10 13:34:00,
2013-06-10 08:37:00,69.1,53.2,29.74,East,90,0.0,0.0,57,0.00,,---,0.00,VWS V14.00,2013-06-10 13:37:00,
2013-06-10 08:38:00,69.4,53.5,29.74,East,90,0.0,0.0,57,0.00,,---,0.00,VWS V14.00,2013-06-10 13:38:00,
2013-06-10 08:39:00,69.6,53.2,29.74,East,90,0.0,0.0,56,0.00,,---,0.00,VWS V14.00,2013-06-10 13:39:00,
2013-06-10 08:42:00,69.9,53.5,29.74,East,90,0.0,0.0,56,0.00,,---,0.00,VWS V14.00,2013-06-10 13:42:00,
2013-06-10 08:44:00,70.3,53.4,29.74,East,90,0.0,0.0,55,0.00,,---,0.00,VWS V14.00,2013-06-10 13:44:00,
2013-06-10 08:48:00,70.8,52.8,29.74,East,90,0.0,0.0,53,0.00,,---,0.00,VWS V14.00,2013-06-10 13:48:00,
2013-06-10 08:49:00,70.9,52.9,29.74,East,90,0.0,0.0,53,0.00,,---,0.00,VWS V14.00,2013-06-10 13:49:00,
2013-06-10 08:53:00,71.5,53.0,29.74,East,90,0.0,0.0,52,0.00,,---,0.00,VWS V14.00,2013-06-10 13:53:00,
2013-06-10 08:54:00,71.8,53.2,29.74,East,90,0.0,0.0,52,0.00,,---,0.00,VWS V14.00,2013-06-10 13:54:00,
2013-06-10 08:55:00,72.0,52.9,29.74,East,90,0.0,0.0,51,0.00,,---,0.00,VWS V14.00,2013-06-10 13:55:00,
2013-06-10 08:58:00,72.5,52.8,29.74,East,90,0.0,0.0,50,0.00,,---,0.00,VWS V14.00,2013-06-10 13:58:00,
2013-06-10 08:59:00,72.7,53.0,29.72,East,90,0.0,0.0,50,0.00,,---,0.00,VWS V14.00,2013-06-10 13:59:00,
2013-06-10 09:00:00,72.7,53.0,29.72,East,90,0.0,0.0,50,0.00,,---,0.00,VWS V14.00,2013-06-10 14:00:00,
2013-06-10 09:03:00,73.7,54.5,29.72,East,90,0.0,0.0,51,0.00,,---,0.00,VWS V14.00,2013-06-10 14:03:00,
2013-06-10 09:04:00,73.7,54.5,29.72,East,90,0.0,0.0,51,0.00,,---,0.00,VWS V14.00,2013-06-10 14:04:00,
2013-06-10 09:05:00,73.9,53.6,29.72,East,90,0.0,0.0,49,0.00,,---,0.00,VWS V14.00,2013-06-10 14:05:00,
2013-06-10 09:08:00,74.2,53.8,29.72,East,90,0.0,0.0,49,0.00,,---,0.00,VWS V14.00,2013-06-10 14:08:00,
2013-06-10 09:09:00,74.2,53.8,29.72,East,90,0.0,0.0,49,0.00,,---,0.00,VWS V14.00,2013-06-10 14:09:00,
2013-06-10 09:10:00,74.2,54.4,29.72,East,90,0.0,0.0,50,0.00,,---,0.00,VWS V14.00,2013-06-10 14:10:00,
2013-06-10 09:13:00,74.7,54.3,29.73,East,90,0.0,0.0,49,0.00,,---,0.00,VWS V14.00,2013-06-10 14:13:00,
2013-06-10 09:14:00,74.7,54.3,29.73,East,90,0.0,0.0,49,0.00,,---,0.00,VWS V14.00,2013-06-10 14:14:00,
2013-06-10 09:15:00,74.7,54.8,29.73,East,90,0.0,0.0,50,0.00,,---,0.00,VWS V14.00,2013-06-10 14:15:00,
2013-06-10 09:16:00,74.9,54.5,29.73,East,90,0.0,0.0,49,0.00,,---,0.00,VWS V14.00,2013-06-10 14:16:00,
2013-06-10 09:19:00,74.9,54.5,29.73,East,90,0.0,0.0,49,0.00,,---,0.00,VWS V14.00,2013-06-10 14:19:00,
2013-06-10 09:20:00,75.1,54.7,29.73,East,90,0.0,0.0,49,0.00,,---,0.00,VWS V14.00,2013-06-10 14:20:00,
2013-06-10 09:21:00,74.9,54.5,29.73,NNW,332,0.0,0.0,49,0.00,,---,0.00,VWS V14.00,2013-06-10 14:21:00,
2013-06-10 09:22:00,74.9,54.5,29.73,WNW,298,0.0,0.0,49,0.00,,---,0.00,VWS V14.00,2013-06-10 14:22:00,
2013-06-10 09:24:00,74.9,54.5,29.73,WNW,298,0.0,0.0,49,0.00,,---,0.00,VWS V14.00,2013-06-10 14:24:00,
2013-06-10 09:25:00,74.9,55.0,29.73,WNW,298,0.0,0.0,50,0.00,,---,0.00,VWS V14.00,2013-06-10 14:25:00,
2013-06-10 09:27:00,75.1,55.2,29.73,WNW,298,0.0,0.0,50,0.00,,---,0.00,VWS V14.00,2013-06-10 14:27:00,
2013-06-10 09:29:00,75.3,55.9,29.73,WNW,298,0.0,0.0,51,0.00,,---,0.00,VWS V14.00,2013-06-10 14:29:00,
2013-06-10 09:30:00,75.4,56.0,29.73,WNW,298,0.0,0.0,51,0.00,,---,0.00,VWS V14.00,2013-06-10 14:30:00,
2013-06-10 09:32:00,75.6,55.7,29.73,WNW,298,0.0,0.0,50,0.00,,---,0.00,VWS V14.00,2013-06-10 14:32:00,
2013-06-10 09:34:00,75.8,56.4,29.73,WNW,298,0.0,0.0,51,0.00,,---,0.00,VWS V14.00,2013-06-10 14:34:00,
2013-06-10 09:35:00,75.6,56.2,29.73,WNW,298,0.0,0.0,51,0.00,,---,0.00,VWS V14.00,2013-06-10 14:35:00,
2013-06-10 09:37:00,76.0,56.6,29.73,WNW,294,0.0,0.0,51,0.00,,---,0.00,VWS V14.00,2013-06-10 14:37:00,
2013-06-10 09:38:00,76.0,56.0,29.73,WNW,294,0.0,0.0,50,0.00,,---,0.00,VWS V14.00,2013-06-10 14:38:00,
2013-06-10 09:39:00,76.0,56.6,29.73,West,278,0.0,0.0,51,0.00,,---,0.00,VWS V14.00,2013-06-10 14:39:00,
2013-06-10 09:40:00,76.0,56.6,29.73,West,278,0.0,0.0,51,0.00,,---,0.00,VWS V14.00,2013-06-10 14:40:00,
2013-06-10 09:41:00,76.1,56.7,29.73,West,278,0.0,0.0,51,0.00,,---,0.00,VWS V14.00,2013-06-10 14:41:00,
2013-06-10 09:42:00,76.3,56.3,29.73,West,278,0.0,0.0,50,0.00,,---,0.00,VWS V14.00,2013-06-10 14:42:00,
2013-06-10 09:43:00,76.1,55.6,29.73,West,278,0.0,0.0,49,0.00,,---,0.00,VWS V14.00,2013-06-10 14:43:00,
2013-06-10 09:44:00,76.0,56.6,29.72,West,275,0.0,8.0,51,0.00,,---,0.00,VWS V14.00,2013-06-10 14:44:00,
2013-06-10 09:45:00,75.8,56.4,29.72,West,274,1.0,8.0,51,0.00,,---,0.00,VWS V14.00,2013-06-10 14:45:00,
2013-06-10 09:46:00,76.0,56.6,29.72,West,270,0.0,8.0,51,0.00,,---,0.00,VWS V14.00,2013-06-10 14:46:00,
2013-06-10 09:48:00,76.0,56.6,29.72,West,272,2.0,8.0,51,0.00,,---,0.00,VWS V14.00,2013-06-10 14:48:00,
2013-06-10 09:49:00,76.0,56.6,29.72,West,268,0.0,8.0,51,0.00,,---,0.00,VWS V14.00,2013-06-10 14:49:00,
2013-06-10 09:50:00,76.1,56.7,29.72,West,268,0.0,8.0,51,0.00,,---,0.00,VWS V14.00,2013-06-10 14:50:00,
2013-06-10 09:51:00,76.1,55.6,29.72,West,263,0.0,8.0,49,0.00,,---,0.00,VWS V14.00,2013-06-10 14:51:00,
2013-06-10 09:53:00,76.3,56.9,29.72,West,261,0.0,8.0,51,0.00,,---,0.00,VWS V14.00,2013-06-10 14:53:00,
2013-06-10 09:55:00,76.1,56.7,29.72,WSW,248,0.0,8.0,51,0.00,,---,0.00,VWS V14.00,2013-06-10 14:55:00,
2013-06-10 09:56:00,76.3,56.3,29.72,WSW,250,0.0,8.0,50,0.00,,---,0.00,VWS V14.00,2013-06-10 14:56:00,
2013-06-10 09:58:00,76.5,55.9,29.72,WSW,250,0.0,8.0,49,0.00,,---,0.00,VWS V14.00,2013-06-10 14:58:00,
2013-06-10 10:00:00,76.3,55.8,29.72,WSW,248,0.0,0.0,49,0.00,,---,0.00,VWS V14.00,2013-06-10 15:00:00,
2013-06-10 10:02:00,76.3,55.8,29.72,WSW,241,0.0,0.0,49,0.00,,---,0.00,VWS V14.00,2013-06-10 15:02:00,
2013-06-10 10:03:00,76.3,55.8,29.72,WSW,241,0.0,0.0,49,0.00,,---,0.00,VWS V14.00,2013-06-10 15:03:00,
2013-06-10 10:05:00,76.5,56.5,29.72,WSW,243,0.0,0.0,50,0.00,,---,0.00,VWS V14.00,2013-06-10 15:05:00,
2013-06-10 10:07:00,76.5,55.9,29.72,WSW,244,0.0,0.0,49,0.00,,---,0.00,VWS V14.00,2013-06-10 15:07:00,
2013-06-10 10:08:00,76.5,55.9,29.72,WSW,240,0.0,0.0,49,0.00,,---,0.00,VWS V14.00,2013-06-10 15:08:00,
2013-06-10 10:10:00,76.5,55.9,29.72,WSW,241,0.0,0.0,49,0.00,,---,0.00,VWS V14.00,2013-06-10 15:10:00,
2013-06-10 10:12:00,76.8,56.2,29.72,WSW,246,0.0,0.0,49,0.00,,---,0.00,VWS V14.00,2013-06-10 15:12:00,
2013-06-10 10:13:00,76.8,56.2,29.72,WSW,246,0.0,0.0,49,0.00,,---,0.00,VWS V14.00,2013-06-10 15:13:00,
2013-06-10 10:15:00,77.0,54.7,29.73,WSW,246,0.0,0.0,46,0.00,,---,0.00,VWS V14.00,2013-06-10 15:15:00,
2013-06-10 10:17:00,77.6,54.6,29.73,WSW,246,0.0,0.0,45,0.00,,---,0.00,VWS V14.00,2013-06-10 15:17:00,
2013-06-10 10:18:00,77.7,55.9,29.73,WSW,246,0.0,0.0,47,0.00,,---,0.00,VWS V14.00,2013-06-10 15:18:00,
2013-06-10 10:19:00,77.9,55.5,29.73,WSW,246,0.0,0.0,46,0.00,,---,0.00,VWS V14.00,2013-06-10 15:19:00,
2013-06-10 10:20:00,78.1,55.0,29.73,WSW,246,0.0,0.0,45,0.00,,---,0.00,VWS V14.00,2013-06-10 15:20:00,
2013-06-10 10:22:00,78.5,55.4,29.73,WSW,246,0.0,0.0,45,0.00,,---,0.00,VWS V14.00,2013-06-10 15:22:00,
2013-06-10 10:23:00,78.6,55.5,29.73,WSW,246,0.0,0.0,45,0.00,,---,0.00,VWS V14.00,2013-06-10 15:23:00,
2013-06-10 10:24:00,78.8,54.4,29.73,WSW,246,0.0,0.0,43,0.00,,---,0.00,VWS V14.00,2013-06-10 15:24:00,
2013-06-10 10:25:00,78.8,54.4,29.73,WSW,246,0.0,0.0,43,0.00,,---,0.00,VWS V14.00,2013-06-10 15:25:00,
2013-06-10 10:27:00,78.8,54.4,29.73,WSW,237,0.0,0.0,43,0.00,,---,0.00,VWS V14.00,2013-06-10 15:27:00,
2013-06-10 10:28:00,79.0,54.6,29.72,WSW,237,0.0,0.0,43,0.00,,---,0.00,VWS V14.00,2013-06-10 15:28:00,
2013-06-10 10:29:00,79.0,54.6,29.72,WSW,237,0.0,0.0,43,0.00,,---,0.00,VWS V14.00,2013-06-10 15:29:00,
2013-06-10 10:30:00,79.2,56.0,29.72,WSW,237,0.0,0.0,45,0.00,,---,0.00,VWS V14.00,2013-06-10 15:30:00,
2013-06-10 10:32:00,78.6,54.3,29.72,WSW,237,0.0,0.0,43,0.00,,---,0.00,VWS V14.00,2013-06-10 15:32:00,
2013-06-10 10:34:00,78.8,54.4,29.72,WSW,237,0.0,0.0,43,0.00,,---,0.00,VWS V14.00,2013-06-10 15:34:00,
2013-06-10 10:35:00,78.6,54.3,29.72,WSW,239,0.0,0.0,43,0.00,,---,0.00,VWS V14.00,2013-06-10 15:35:00,
2013-06-10 10:37:00,78.6,53.6,29.72,WSW,241,0.0,0.0,42,0.00,,---,0.00,VWS V14.00,2013-06-10 15:37:00,
2013-06-10 10:39:00,78.8,54.4,29.72,WSW,241,0.0,0.0,43,0.00,,---,0.00,VWS V14.00,2013-06-10 15:39:00,
2013-06-10 10:40:00,79.0,54.0,29.72,SW,217,0.0,0.0,42,0.00,,---,0.00,VWS V14.00,2013-06-10 15:40:00,
2013-06-10 10:43:00,79.2,52.8,29.72,SSW,210,0.0,0.0,40,0.00,,---,0.00,VWS V14.00,2013-06-10 15:43:00,
2013-06-10 10:45:00,79.6,53.2,29.72,SSW,210,0.0,0.0,40,0.00,,---,0.00,VWS V14.00,2013-06-10 15:45:00,
2013-06-10 10:48:00,79.8,53.4,29.72,SSW,210,0.0,0.0,40,0.00,,---,0.00,VWS V14.00,2013-06-10 15:48:00,
2013-06-10 10:50:00,80.1,54.3,29.72,SSW,205,0.0,0.0,41,0.00,,---,0.00,VWS V14.00,2013-06-10 15:50:00,
2013-06-10 10:53:00,80.3,50.9,29.72,South,181,7.0,7.0,36,0.00,,---,0.00,VWS V14.00,2013-06-10 15:53:00,
2013-06-10 10:55:00,80.5,53.3,29.72,South,176,0.0,7.0,39,0.00,,---,0.00,VWS V14.00,2013-06-10 15:55:00,
2013-06-10 10:56:00,80.5,52.6,29.72,South,176,0.0,7.0,38,0.00,,---,0.00,VWS V14.00,2013-06-10 15:56:00,
2013-06-10 10:58:00,80.7,52.8,29.72,SE,140,3.0,7.0,38,0.00,,---,0.00,VWS V14.00,2013-06-10 15:58:00,
2013-06-10 11:00:00,80.3,52.4,29.72,SSE,164,1.0,6.0,38,0.00,,---,0.00,VWS V14.00,2013-06-10 16:00:00,
2013-06-10 11:01:00,80.3,52.4,29.72,SSE,164,1.0,6.0,38,0.00,,---,0.00,VWS V14.00,2013-06-10 16:01:00,
2013-06-10 11:02:00,80.1,52.9,29.72,South,169,0.0,6.0,39,0.00,,---,0.00,VWS V14.00,2013-06-10 16:02:00,
2013-06-10 11:03:00,80.3,52.4,29.72,SSE,155,0.0,6.0,38,0.00,,---,0.00,VWS V14.00,2013-06-10 16:03:00,
2013-06-10 11:05:00,80.5,51.1,29.72,SE,136,2.0,6.0,36,0.00,,---,0.00,VWS V14.00,2013-06-10 16:05:00,
2013-06-10 11:06:00,80.5,50.4,29.72,SE,136,0.0,6.0,35,0.00,,---,0.00,VWS V14.00,2013-06-10 16:06:00,
2013-06-10 11:07:00,80.7,50.5,29.72,SE,136,1.0,6.0,35,0.00,,---,0.00,VWS V14.00,2013-06-10 16:07:00,
2013-06-10 11:08:00,81.1,51.7,29.72,SE,138,0.0,6.0,36,0.00,,---,0.00,VWS V14.00,2013-06-10 16:08:00,
2013-06-10 11:09:00,81.2,51.7,29.72,SE,138,0.0,6.0,36,0.00,,---,0.00,VWS V14.00,2013-06-10 16:09:00,
2013-06-10 11:10:00,81.8,51.5,29.72,SE,133,1.0,6.0,35,0.00,,---,0.00,VWS V14.00,2013-06-10 16:10:00,
2013-06-10 11:11:00,82.0,53.2,29.72,SE,133,2.0,6.0,37,0.00,,---,0.00,VWS V14.00,2013-06-10 16:11:00,
2013-06-10 11:13:00,82.2,51.1,29.72,SSE,152,6.0,7.0,34,0.00,,---,0.00,VWS V14.00,2013-06-10 16:13:00,
2013-06-10 11:14:00,82.0,50.9,29.73,SSE,164,1.0,7.0,34,0.00,,---,0.00,VWS V14.00,2013-06-10 16:14:00,
2013-06-10 11:15:00,81.8,49.1,29.73,South,184,5.0,9.0,32,0.00,,---,0.00,VWS V14.00,2013-06-10 16:15:00,
2013-06-10 11:16:00,81.6,49.7,29.73,South,172,0.0,9.0,33,0.00,,---,0.00,VWS V14.00,2013-06-10 16:16:00,
2013-06-10 11:18:00,81.8,49.9,29.73,SSE,164,0.0,9.0,33,0.00,,---,0.00,VWS V14.00,2013-06-10 16:18:00,
2013-06-10 11:19:00,82.0,50.1,29.73,SSE,164,0.0,9.0,33,0.00,,---,0.00,VWS V14.00,2013-06-10 16:19:00,
2013-06-10 11:20:00,82.4,51.2,29.73,SSE,165,0.0,9.0,34,0.00,,---,0.00,VWS V14.00,2013-06-10 16:20:00,
2013-06-10 11:22:00,82.6,50.6,29.73,SE,126,2.0,9.0,33,0.00,,---,0.00,VWS V14.00,2013-06-10 16:22:00,
2013-06-10 11:23:00,82.6,50.6,29.73,SSE,147,2.0,9.0,33,0.00,,---,0.00,VWS V14.00,2013-06-10 16:23:00,
2013-06-10 11:24:00,82.6,50.6,29.73,SSE,148,3.0,9.0,33,0.00,,---,0.00,VWS V14.00,2013-06-10 16:24:00,
2013-06-10 11:26:00,82.6,50.6,29.73,SSE,151,0.0,9.0,33,0.00,,---,0.00,VWS V14.00,2013-06-10 16:26:00,
2013-06-10 11:27:00,82.6,50.6,29.73,SSE,152,0.0,9.0,33,0.00,,---,0.00,VWS V14.00,2013-06-10 16:27:00,
2013-06-10 11:28:00,82.2,51.1,29.73,SSE,167,5.0,12.0,34,0.00,,---,0.00,VWS V14.00,2013-06-10 16:28:00,
2013-06-10 11:29:00,82.2,51.1,29.73,South,174,7.0,12.0,34,0.00,,---,0.00,VWS V14.00,2013-06-10 16:29:00,
2013-06-10 11:32:00,82.4,51.2,29.73,SSE,152,0.0,2.0,34,0.00,,---,0.00,VWS V14.00,2013-06-10 16:32:00,
2013-06-10 11:34:00,82.6,48.9,29.73,SSW,193,0.0,2.0,31,0.00,,---,0.00,VWS V14.00,2013-06-10 16:34:00,
2013-06-10 11:37:00,82.6,50.6,29.73,SSE,158,1.0,10.0,33,0.00,,---,0.00,VWS V14.00,2013-06-10 16:37:00,
2013-06-10 11:39:00,82.8,51.6,29.73,SSE,154,0.0,10.0,34,0.00,,---,0.00,VWS V14.00,2013-06-10 16:39:00,
2013-06-10 11:42:00,83.4,52.9,29.73,SSE,168,3.0,10.0,35,0.00,,---,0.00,VWS V14.00,2013-06-10 16:42:00,
2013-06-10 11:44:00,84.0,51.8,29.72,SSE,150,3.0,10.0,33,0.00,,---,0.00,VWS V14.00,2013-06-10 16:44:00,
2013-06-10 11:45:00,83.8,51.7,29.72,SSE,155,0.0,10.0,33,0.00,,---,0.00,VWS V14.00,2013-06-10 16:45:00,
2013-06-10 11:47:00,84.1,47.5,29.72,South,172,2.0,10.0,28,0.00,,---,0.00,VWS V14.00,2013-06-10 16:47:00,
2013-06-10 11:49:00,83.8,50.0,29.72,SSE,164,5.0,11.0,31,0.00,,---,0.00,VWS V14.00,2013-06-10 16:49:00,
2013-06-10 11:50:00,83.8,47.2,29.72,South,181,5.0,11.0,28,0.00,,---,0.00,VWS V14.00,2013-06-10 16:50:00,
2013-06-10 11:52:00,83.8,48.2,29.72,SSE,164,1.0,11.0,29,0.00,,---,0.00,VWS V14.00,2013-06-10 16:52:00,
2013-06-10 11:55:00,83.8,45.3,29.72,SSW,195,3.0,11.0,26,0.00,,---,0.00,VWS V14.00,2013-06-10 16:55:00,
2013-06-10 11:56:00,84.0,47.4,29.72,South,172,7.0,11.0,28,0.00,,---,0.00,VWS V14.00,2013-06-10 16:56:00,
2013-06-10 11:57:00,83.8,47.2,29.72,South,191,4.0,11.0,28,0.00,,---,0.00,VWS V14.00,2013-06-10 16:57:00,
2013-06-10 11:58:00,84.0,47.4,29.72,SSE,148,1.0,11.0,28,0.00,,---,0.00,VWS V14.00,2013-06-10 16:58:00,
2013-06-10 12:00:00,84.3,46.7,29.73,South,169,0.0,0.0,27,0.00,,---,0.00,VWS V14.00,2013-06-10 17:00:00,
2013-06-10 12:01:00,84.1,46.5,29.73,South,184,6.0,8.0,27,0.00,,---,0.00,VWS V14.00,2013-06-10 17:01:00,
2013-06-10 12:02:00,83.8,43.2,29.73,SSW,193,1.0,10.0,24,0.00,,---,0.00,VWS V14.00,2013-06-10 17:02:00,
2013-06-10 12:03:00,84.0,43.4,29.73,South,186,1.0,10.0,24,0.00,,---,0.00,VWS V14.00,2013-06-10 17:03:00,
2013-06-10 12:05:00,84.1,46.5,29.73,South,188,0.0,10.0,27,0.00,,---,0.00,VWS V14.00,2013-06-10 17:05:00,
2013-06-10 12:06:00,84.1,43.5,29.73,SSE,168,0.0,10.0,24,0.00,,---,0.00,VWS V14.00,2013-06-10 17:06:00,
2013-06-10 12:07:00,84.3,45.7,29.73,SSW,198,3.0,10.0,26,0.00,,---,0.00,VWS V14.00,2013-06-10 17:07:00,
2013-06-10 12:08:00,84.1,44.5,29.73,SSW,196,0.0,10.0,25,0.00,,---,0.00,VWS V14.00,2013-06-10 17:08:00,
2013-06-10 12:10:00,84.1,44.5,29.73,ESE,112,0.0,10.0,25,0.00,,---,0.00,VWS V14.00,2013-06-10 17:10:00,
2013-06-10 12:11:00,84.5,43.8,29.73,SE,124,1.0,10.0,24,0.00,,---,0.00,VWS V14.00,2013-06-10 17:11:00,
2013-06-10 12:12:00,84.7,45.0,29.73,SE,124,0.0,10.0,25,0.00,,---,0.00,VWS V14.00,2013-06-10 17:12:00,
2013-06-10 12:14:00,85.1,43.2,29.74,SE,124,0.0,10.0,23,0.00,,---,0.00,VWS V14.00,2013-06-10 17:14:00,
2013-06-10 12:15:00,85.1,44.3,29.74,SE,124,0.0,10.0,24,0.00,,---,0.00,VWS V14.00,2013-06-10 17:15:00,
2013-06-10 12:17:00,85.5,45.7,29.74,SE,131,0.0,10.0,25,0.00,,---,0.00,VWS V14.00,2013-06-10 17:17:00,
2013-06-10 12:18:00,85.5,45.7,29.74,SE,144,3.0,10.0,25,0.00,,---,0.00,VWS V14.00,2013-06-10 17:18:00,
2013-06-10 12:19:00,85.5,45.7,29.74,South,178,2.0,10.0,25,0.00,,---,0.00,VWS V14.00,2013-06-10 17:19:00,
2013-06-10 12:20:00,85.3,46.6,29.74,South,175,2.0,10.0,26,0.00,,---,0.00,VWS V14.00,2013-06-10 17:20:00,
2013-06-10 12:22:00,85.3,43.3,29.74,SE,144,0.0,10.0,23,0.00,,---,0.00,VWS V14.00,2013-06-10 17:22:00,
2013-06-10 12:23:00,85.3,47.6,29.74,SE,140,0.0,10.0,27,0.00,,---,0.00,VWS V14.00,2013-06-10 17:23:00,
2013-06-10 12:24:00,85.3,47.6,29.74,SE,138,0.0,10.0,27,0.00,,---,0.00,VWS V14.00,2013-06-10 17:24:00,
2013-06-10 12:25:00,85.5,46.7,29.74,SE,124,9.0,10.0,26,0.00,,---,0.00,VWS V14.00,2013-06-10 17:25:00,
2013-06-10 12:27:00,85.5,47.7,29.74,SE,145,0.0,10.0,27,0.00,,---,0.00,VWS V14.00,2013-06-10 17:27:00,
2013-06-10 12:28:00,85.5,47.7,29.73,SE,145,0.0,10.0,27,0.00,,---,0.00,VWS V14.00,2013-06-10 17:28:00,
2013-06-10 12:29:00,85.7,47.9,29.73,SSE,165,0.0,10.0,27,0.00,,---,0.00,VWS V14.00,2013-06-10 17:29:00,
2013-06-10 12:30:00,85.7,46.9,29.73,South,176,0.0,2.0,26,0.00,,---,0.00,VWS V14.00,2013-06-10 17:30:00,
2013-06-10 12:32:00,85.7,46.9,29.73,South,182,10.0,17.0,26,0.00,,---,0.00,VWS V14.00,2013-06-10 17:32:00,
2013-06-10 12:34:00,85.5,45.7,29.73,South,181,1.0,17.0,25,0.00,,---,0.00,VWS V14.00,2013-06-10 17:34:00,
2013-06-10 12:35:00,85.5,44.6,29.73,South,181,0.0,17.0,24,0.00,,---,0.00,VWS V14.00,2013-06-10 17:35:00,
2013-06-10 12:38:00,85.5,45.7,29.73,SSW,192,0.0,17.0,25,0.00,,---,0.00,VWS V14.00,2013-06-10 17:38:00,
2013-06-10 12:39:00,85.9,46.0,29.73,SE,131,1.0,17.0,25,0.00,,---,0.00,VWS V14.00,2013-06-10 17:39:00,
2013-06-10 12:40:00,85.9,42.7,29.73,ESE,112,2.0,17.0,22,0.00,,---,0.00,VWS V14.00,2013-06-10 17:40:00,
2013-06-10 12:43:00,86.3,45.3,29.73,East,85,0.0,17.0,24,0.00,,---,0.00,VWS V14.00,2013-06-10 17:43:00,
2013-06-10 12:44:00,86.5,45.5,29.73,SSE,161,0.0,17.0,24,0.00,,---,0.00,VWS V14.00,2013-06-10 17:44:00,
2013-06-10 12:45:00,86.5,44.3,29.73,SSE,161,0.0,17.0,23,0.00,,---,0.00,VWS V14.00,2013-06-10 17:45:00,
2013-06-10 12:48:00,86.7,45.6,29.73,SSE,152,2.0,17.0,24,0.00,,---,0.00,VWS V14.00,2013-06-10 17:48:00,
2013-06-10 12:49:00,86.3,45.3,29.73,ENE,73,1.0,17.0,24,0.00,,---,0.00,VWS V14.00,2013-06-10 17:49:00,
2013-06-10 12:50:00,85.9,43.8,29.73,SE,128,0.0,17.0,23,0.00,,---,0.00,VWS V14.00,2013-06-10 17:50:00,
2013-06-10 12:54:00,86.5,40.7,29.73,SSW,193,2.0,17.0,20,0.00,,---,0.00,VWS V14.00,2013-06-10 17:54:00,
2013-06-10 12:55:00,87.0,41.1,29.73,SSW,195,3.0,17.0,20,0.00,,---,0.00,VWS V14.00,2013-06-10 17:55:00,
2013-06-10 12:59:00,87.0,42.4,29.72,SSW,200,0.0,17.0,21,0.00,,---,0.00,VWS V14.00,2013-06-10 17:59:00,
2013-06-10 13:00:00,87.0,43.6,29.72,SSW,200,0.0,0.0,22,0.00,,---,0.00,VWS V14.00,2013-06-10 18:00:00,
2013-06-10 13:04:00,86.5,43.2,29.72,ESE,120,0.0,0.0,22,0.00,,---,0.00,VWS V14.00,2013-06-10 18:04:00,
2013-06-10 13:05:00,86.7,43.3,29.72,ESE,120,0.0,0.0,22,0.00,,---,0.00,VWS V14.00,2013-06-10 18:05:00,
2013-06-10 13:06:00,86.7,44.5,29.72,ESE,120,0.0,0.0,23,0.00,,---,0.00,VWS V14.00,2013-06-10 18:06:00,
2013-06-10 13:09:00,87.0,42.4,29.72,East,97,3.0,11.0,21,0.00,,---,0.00,VWS V14.00,2013-06-10 18:09:00,
2013-06-10 13:10:00,86.7,42.1,29.72,ENE,75,5.0,11.0,21,0.00,,---,0.00,VWS V14.00,2013-06-10 18:10:00,
2013-06-10 13:12:00,86.3,43.0,29.72,ESE,103,7.0,11.0,22,0.00,,---,0.00,VWS V14.00,2013-06-10 18:12:00,
2013-06-10 13:15:00,86.3,41.8,29.73,ESE,106,2.0,11.0,21,0.00,,---,0.00,VWS V14.00,2013-06-10 18:15:00,
2013-06-10 13:17:00,86.1,41.6,29.73,ESE,102,5.0,11.0,21,0.00,,---,0.00,VWS V14.00,2013-06-10 18:17:00,
2013-06-10 13:20:00,86.3,41.8,29.73,ESE,119,2.0,11.0,21,0.00,,---,0.00,VWS V14.00,2013-06-10 18:20:00,
2013-06-10 13:22:00,86.5,42.0,29.73,ESE,112,0.0,11.0,21,0.00,,---,0.00,VWS V14.00,2013-06-10 18:22:00,
2013-06-10 13:25:00,86.7,42.1,29.73,North,356,0.0,11.0,21,0.00,,---,0.00,VWS V14.00,2013-06-10 18:25:00,
2013-06-10 13:26:00,86.7,43.3,29.73,North,356,0.0,11.0,22,0.00,,---,0.00,VWS V14.00,2013-06-10 18:26:00,
2013-06-10 13:27:00,87.0,43.6,29.73,North,7,2.0,11.0,22,0.00,,---,0.00,VWS V14.00,2013-06-10 18:27:00,
2013-06-10 13:30:00,87.2,43.8,29.72,NNE,31,0.0,0.0,22,0.00,,---,0.00,VWS V14.00,2013-06-10 18:30:00,
2013-06-10 13:31:00,87.4,43.9,29.72,NE,56,2.0,7.0,22,0.00,,---,0.00,VWS V14.00,2013-06-10 18:31:00,
2013-06-10 13:32:00,87.4,42.7,29.72,NNE,30,0.0,7.0,21,0.00,,---,0.00,VWS V14.00,2013-06-10 18:32:00,
2013-06-10 13:35:00,87.2,41.3,29.72,NNE,17,4.0,7.0,20,0.00,,---,0.00,VWS V14.00,2013-06-10 18:35:00,
2013-06-10 13:36:00,87.2,42.5,29.72,NNE,13,0.0,7.0,21,0.00,,---,0.00,VWS V14.00,2013-06-10 18:36:00,
2013-06-10 13:37:00,87.2,43.8,29.72,North,359,2.0,7.0,22,0.00,,---,0.00,VWS V14.00,2013-06-10 18:37:00,
2013-06-10 13:40:00,87.6,42.9,29.72,North,356,0.0,7.0,21,0.00,,---,0.00,VWS V14.00,2013-06-10 18:40:00,
2013-06-10 13:41:00,87.2,41.3,29.72,North,0,0.0,7.0,20,0.00,,---,0.00,VWS V14.00,2013-06-10 18:41:00,
2013-06-10 13:42:00,87.2,42.5,29.72,North,1,0.0,7.0,21,0.00,,---,0.00,VWS V14.00,2013-06-10 18:42:00,
2013-06-10 13:45:00,88.0,41.9,29.71,NNE,28,0.0,7.0,20,0.00,,---,0.00,VWS V14.00,2013-06-10 18:45:00,
2013-06-10 13:47:00,87.6,41.6,29.71,NNE,28,5.0,7.0,20,0.00,,---,0.00,VWS V14.00,2013-06-10 18:47:00,
2013-06-10 13:48:00,87.4,42.7,29.71,NNE,32,3.0,7.0,21,0.00,,---,0.00,VWS V14.00,2013-06-10 18:48:00,
2013-06-10 13:50:00,87.6,42.9,29.71,NE,56,0.0,7.0,21,0.00,,---,0.00,VWS V14.00,2013-06-10 18:50:00,
2013-06-10 13:51:00,87.6,42.9,29.71,NE,56,0.0,7.0,21,0.00,,---,0.00,VWS V14.00,2013-06-10 18:51:00,
2013-06-10 13:52:00,87.6,42.9,29.71,NE,55,2.0,7.0,21,0.00,,---,0.00,VWS V14.00,2013-06-10 18:52:00,
2013-06-10 13:53:00,87.8,43.0,29.71,NE,54,0.0,7.0,21,0.00,,---,0.00,VWS V14.00,2013-06-10 18:53:00,
2013-06-10 13:55:00,87.8,43.0,29.71,ENE,72,2.0,8.0,21,0.00,,---,0.00,VWS V14.00,2013-06-10 18:55:00,
2013-06-10 13:56:00,87.6,42.9,29.71,ENE,72,3.0,8.0,21,0.00,,---,0.00,VWS V14.00,2013-06-10 18:56:00,
2013-06-10 13:57:00,87.2,41.3,29.71,ENE,72,0.0,8.0,20,0.00,,---,0.00,VWS V14.00,2013-06-10 18:57:00,
2013-06-10 13:58:00,87.2,41.3,29.71,ENE,72,0.0,8.0,20,0.00,,---,0.00,VWS V14.00,2013-06-10 18:58:00,
2013-06-10 14:00:00,87.6,42.9,29.72,ENE,72,0.0,0.0,21,0.00,,---,0.00,VWS V14.00,2013-06-10 19:00:00,
2013-06-10 14:01:00,87.4,42.7,29.72,ENE,72,0.0,0.0,21,0.00,,---,0.00,VWS V14.00,2013-06-10 19:01:00,
2013-06-10 14:02:00,87.6,42.9,29.72,East,88,0.0,7.0,21,0.00,,---,0.00,VWS V14.00,2013-06-10 19:02:00,
2013-06-10 14:03:00,87.8,43.0,29.72,East,88,0.0,7.0,21,0.00,,---,0.00,VWS V14.00,2013-06-10 19:03:00,
2013-06-10 14:05:00,88.2,43.4,29.72,East,88,0.0,7.0,21,0.00,,---,0.00,VWS V14.00,2013-06-10 19:05:00,
2013-06-10 14:07:00,88.0,43.2,29.72,East,88,0.0,7.0,21,0.00,,---,0.00,VWS V14.00,2013-06-10 19:07:00,
2013-06-10 14:08:00,88.0,43.2,29.72,East,88,0.0,7.0,21,0.00,,---,0.00,VWS V14.00,2013-06-10 19:08:00,
2013-06-10 14:10:00,87.6,44.1,29.72,SSW,206,0.0,12.0,22,0.00,,---,0.00,VWS V14.00,2013-06-10 19:10:00,
2013-06-10 14:12:00,88.2,43.4,29.72,SSW,208,0.0,12.0,21,0.00,,---,0.00,VWS V14.00,2013-06-10 19:12:00,
2013-06-10 14:13:00,88.2,43.4,29.72,SSW,208,0.0,12.0,21,0.00,,---,0.00,VWS V14.00,2013-06-10 19:13:00,
2013-06-10 14:15:00,88.0,43.2,29.71,ESE,117,2.0,12.0,21,0.00,,---,0.00,VWS V14.00,2013-06-10 19:15:00,
2013-06-10 14:18:00,88.2,42.1,29.71,ESE,119,0.0,12.0,20,0.00,,---,0.00,VWS V14.00,2013-06-10 19:18:00,
2013-06-10 14:20:00,88.6,41.1,29.71,SSE,157,3.0,12.0,19,0.00,,---,0.00,VWS V14.00,2013-06-10 19:20:00,
2013-06-10 14:23:00,89.0,41.4,29.71,SSE,157,1.0,12.0,19,0.00,,---,0.00,VWS V14.00,2013-06-10 19:23:00,
2013-06-10 14:25:00,89.3,44.3,29.71,SE,145,6.0,12.0,21,0.00,,---,0.00,VWS V14.00,2013-06-10 19:25:00,
2013-06-10 14:28:00,88.4,42.3,29.71,ESE,106,0.0,12.0,20,0.00,,---,0.00,VWS V14.00,2013-06-10 19:28:00,
2013-06-10 14:29:00,88.2,42.1,29.72,East,99,1.0,12.0,20,0.00,,---,0.00,VWS V14.00,2013-06-10 19:29:00,
2013-06-10 14:32:00,88.4,42.3,29.72,ENE,76,3.0,5.0,20,0.00,,---,0.00,VWS V14.00,2013-06-10 19:32:00,
2013-06-10 14:33:00,88.4,42.3,29.72,SE,140,1.0,5.0,20,0.00,,---,0.00,VWS V14.00,2013-06-10 19:33:00,
2013-06-10 14:34:00,88.4,42.3,29.72,SE,140,0.0,5.0,20,0.00,,---,0.00,VWS V14.00,2013-06-10 19:34:00,
2013-06-10 14:37:00,88.6,42.4,29.72,SE,141,0.0,5.0,20,0.00,,---,0.00,VWS V14.00,2013-06-10 19:37:00,
2013-06-10 14:38:00,88.6,42.4,29.72,SE,141,0.0,5.0,20,0.00,,---,0.00,VWS V14.00,2013-06-10 19:38:00,
2013-06-10 14:39:00,88.6,41.1,29.72,SE,141,0.0,5.0,19,0.00,,---,0.00,VWS V14.00,2013-06-10 19:39:00,
2013-06-10 14:42:00,88.2,42.1,29.72,SSE,160,0.0,5.0,20,0.00,,---,0.00,VWS V14.00,2013-06-10 19:42:00,
2013-06-10 14:43:00,88.2,40.8,29.71,SSE,168,0.0,5.0,19,0.00,,---,0.00,VWS V14.00,2013-06-10 19:43:00,
2013-06-10 14:44:00,88.2,40.8,29.71,SSE,168,0.0,5.0,19,0.00,,---,0.00,VWS V14.00,2013-06-10 19:44:00,
2013-06-10 14:47:00,88.4,40.9,29.71,South,188,0.0,5.0,19,0.00,,---,0.00,VWS V14.00,2013-06-10 19:47:00,
2013-06-10 14:49:00,88.4,40.9,29.71,NNE,16,0.0,5.0,19,0.00,,---,0.00,VWS V14.00,2013-06-10 19:49:00,
2013-06-10 14:50:00,88.6,41.1,29.71,NNE,16,0.0,5.0,19,0.00,,---,0.00,VWS V14.00,2013-06-10 19:50:00,
2013-06-10 14:52:00,89.0,42.8,29.71,NNE,16,0.0,5.0,20,0.00,,---,0.00,VWS V14.00,2013-06-10 19:52:00,
2013-06-10 14:54:00,89.0,41.4,29.71,NNW,335,0.0,5.0,19,0.00,,---,0.00,VWS V14.00,2013-06-10 19:54:00,
2013-06-10 14:55:00,89.0,41.4,29.71,NW,316,3.0,5.0,19,0.00,,---,0.00,VWS V14.00,2013-06-10 19:55:00,
2013-06-10 14:57:00,89.5,41.8,29.71,WNW,291,3.0,6.0,19,0.00,,---,0.00,VWS V14.00,2013-06-10 19:57:00,
2013-06-10 14:59:00,89.3,41.7,29.69,WNW,289,0.0,6.0,19,0.00,,---,0.00,VWS V14.00,2013-06-10 19:59:00,
2013-06-10 15:00:00,89.5,41.8,29.69,WNW,289,0.0,0.0,19,0.00,,---,0.00,VWS V14.00,2013-06-10 20:00:00,
2013-06-10 15:02:00,89.3,41.7,29.69,WNW,285,0.0,5.0,19,0.00,,---,0.00,VWS V14.00,2013-06-10 20:02:00,
2013-06-10 15:04:00,89.5,41.8,29.69,WNW,285,0.0,5.0,19,0.00,,---,0.00,VWS V14.00,2013-06-10 20:04:00,
2013-06-10 15:05:00,89.7,42.0,29.69,WNW,285,0.0,5.0,19,0.00,,---,0.00,VWS V14.00,2013-06-10 20:05:00,
2013-06-10 15:08:00,90.5,44.0,29.69,SE,140,5.0,10.0,20,0.00,,---,0.00,VWS V14.00,2013-06-10 20:08:00,
2013-06-10 15:09:00,90.5,42.7,29.69,SE,124,5.0,10.0,19,0.00,,---,0.00,VWS V14.00,2013-06-10 20:09:00,
2013-06-10 15:10:00,90.1,42.3,29.69,SE,136,2.0,10.0,19,0.00,,---,0.00,VWS V14.00,2013-06-10 20:10:00,
2013-06-10 15:13:00,89.5,43.2,29.69,ESE,107,5.0,10.0,20,0.00,,---,0.00,VWS V14.00,2013-06-10 20:13:00,
2013-06-10 15:14:00,89.5,43.2,29.70,ESE,112,0.0,10.0,20,0.00,,---,0.00,VWS V14.00,2013-06-10 20:14:00,
2013-06-10 15:15:00,89.5,43.2,29.70,ESE,112,0.0,10.0,20,0.00,,---,0.00,VWS V14.00,2013-06-10 20:15:00,
2013-06-10 15:18:00,89.7,43.3,29.70,ESE,113,0.0,10.0,20,0.00,,---,0.00,VWS V14.00,2013-06-10 20:18:00,
2013-06-10 15:19:00,89.9,42.2,29.70,SW,224,3.0,10.0,19,0.00,,---,0.00,VWS V14.00,2013-06-10 20:19:00,
2013-06-10 15:20:00,90.1,42.3,29.70,SW,224,1.0,10.0,19,0.00,,---,0.00,VWS V14.00,2013-06-10 20:20:00,
2013-06-10 15:23:00,90.5,44.0,29.70,South,184,1.0,10.0,20,0.00,,---,0.00,VWS V14.00,2013-06-10 20:23:00,
2013-06-10 15:25:00,90.5,42.7,29.70,SSE,157,0.0,10.0,19,0.00,,---,0.00,VWS V14.00,2013-06-10 20:25:00,
2013-06-10 15:26:00,90.5,42.7,29.70,SSE,154,0.0,10.0,19,0.00,,---,0.00,VWS V14.00,2013-06-10 20:26:00,
2013-06-10 15:28:00,90.3,42.5,29.69,ENE,58,0.0,10.0,19,0.00,,---,0.00,VWS V14.00,2013-06-10 20:28:00,
2013-06-10 15:30:00,90.3,42.5,29.69,SW,220,0.0,0.0,19,0.00,,---,0.00,VWS V14.00,2013-06-10 20:30:00,
2013-06-10 15:31:00,90.3,42.5,29.69,South,181,0.0,3.0,19,0.00,,---,0.00,VWS V14.00,2013-06-10 20:31:00,
2013-06-10 15:33:00,90.5,42.7,29.69,SSE,151,0.0,3.0,19,0.00,,---,0.00,VWS V14.00,2013-06-10 20:33:00,
2013-06-10 15:35:00,91.0,41.7,29.69,SSE,155,0.0,3.0,18,0.00,,---,0.00,VWS V14.00,2013-06-10 20:35:00,
2013-06-10 15:36:00,91.0,41.7,29.69,SSE,155,0.0,3.0,18,0.00,,---,0.00,VWS V14.00,2013-06-10 20:36:00,
2013-06-10 15:38:00,91.4,42.0,29.69,SSE,155,0.0,3.0,18,0.00,,---,0.00,VWS V14.00,2013-06-10 20:38:00,
2013-06-10 15:40:00,91.6,43.5,29.69,ENE,65,0.0,4.0,19,0.00,,---,0.00,VWS V14.00,2013-06-10 20:40:00,
2013-06-10 15:41:00,91.4,42.0,29.69,ENE,64,0.0,4.0,18,0.00,,---,0.00,VWS V14.00,2013-06-10 20:41:00,
2013-06-10 15:43:00,90.5,41.3,29.68,NE,48,5.0,7.0,18,0.00,,---,0.00,VWS V14.00,2013-06-10 20:43:00,
2013-06-10 15:45:00,89.7,40.6,29.68,NE,40,0.0,7.0,18,0.00,,---,0.00,VWS V14.00,2013-06-10 20:45:00,
2013-06-10 15:46:00,89.5,40.5,29.68,NNE,27,7.0,7.0,18,0.00,,---,0.00,VWS V14.00,2013-06-10 20:46:00,
2013-06-10 15:49:00,89.7,40.6,29.68,NNE,28,1.0,7.0,18,0.00,,---,0.00,VWS V14.00,2013-06-10 20:49:00,
2013-06-10 15:50:00,90.1,40.9,29.68,NE,34,4.0,7.0,18,0.00,,---,0.00,VWS V14.00,2013-06-10 20:50:00,
2013-06-10 15:51:00,90.1,40.9,29.68,NE,34,2.0,7.0,18,0.00,,---,0.00,VWS V14.00,2013-06-10 20:51:00,
2013-06-10 15:54:00,90.3,41.1,29.68,NE,34,0.0,7.0,18,0.00,,---,0.00,VWS V14.00,2013-06-10 20:54:00,
2013-06-10 15:56:00,90.3,41.1,29.68,NE,34,0.0,7.0,18,0.00,,---,0.00,VWS V14.00,2013-06-10 20:56:00,
2013-06-10 15:57:00,90.5,41.3,29.68,East,97,3.0,7.0,18,0.00,,---,0.00,VWS V14.00,2013-06-10 20:57:00,
2013-06-10 15:59:00,91.2,40.3,29.67,ESE,102,8.0,14.0,17,0.00,,---,0.00,VWS V14.00,2013-06-10 20:59:00,
2013-06-10 16:01:00,91.8,42.3,29.67,NE,55,5.0,10.0,18,0.00,,---,0.00,VWS V14.00,2013-06-10 21:01:00,
2013-06-10 16:02:00,91.8,42.3,29.67,NE,52,2.0,10.0,18,0.00,,---,0.00,VWS V14.00,2013-06-10 21:02:00,
2013-06-10 16:04:00,92.1,41.1,29.67,NW,323,3.0,10.0,17,0.00,,---,0.00,VWS V14.00,2013-06-10 21:04:00,
2013-06-10 16:06:00,91.8,40.8,29.67,NW,323,0.0,10.0,17,0.00,,---,0.00,VWS V14.00,2013-06-10 21:06:00,
2013-06-10 16:07:00,91.8,42.3,29.67,NW,325,0.0,10.0,18,0.00,,---,0.00,VWS V14.00,2013-06-10 21:07:00,
2013-06-10 16:09:00,91.4,42.0,29.67,North,8,0.0,10.0,18,0.00,,---,0.00,VWS V14.00,2013-06-10 21:09:00,
2013-06-10 16:11:00,91.2,40.3,29.67,North,4,0.0,10.0,17,0.00,,---,0.00,VWS V14.00,2013-06-10 21:11:00,
2013-06-10 16:12:00,91.2,40.3,29.67,North,4,0.0,10.0,17,0.00,,---,0.00,VWS V14.00,2013-06-10 21:12:00,
2013-06-10 16:14:00,90.7,39.9,29.68,NW,323,0.0,10.0,17,0.00,,---,0.00,VWS V14.00,2013-06-10 21:14:00,
2013-06-10 16:17:00,90.5,41.3,29.68,NW,322,0.0,10.0,18,0.00,,---,0.00,VWS V14.00,2013-06-10 21:17:00,
2013-06-10 16:19:00,90.3,39.6,29.68,NNW,328,0.0,10.0,17,0.00,,---,0.00,VWS V14.00,2013-06-10 21:19:00,
2013-06-10 16:22:00,90.5,39.8,29.68,NE,51,0.0,10.0,17,0.00,,---,0.00,VWS V14.00,2013-06-10 21:22:00,
2013-06-10 16:24:00,90.7,38.4,29.68,ENE,78,0.0,10.0,16,0.00,,---,0.00,VWS V14.00,2013-06-10 21:24:00,
2013-06-10 16:27:00,90.7,39.9,29.68,ESE,123,3.0,10.0,17,0.00,,---,0.00,VWS V14.00,2013-06-10 21:27:00,
2013-06-10 16:28:00,90.7,39.9,29.68,ESE,116,0.0,10.0,17,0.00,,---,0.00,VWS V14.00,2013-06-10 21:28:00,
2013-06-10 16:30:00,91.4,37.3,29.68,NE,47,2.0,5.0,15,0.00,,---,0.00,VWS V14.00,2013-06-10 21:30:00,
2013-06-10 16:32:00,91.6,37.5,29.68,ENE,59,3.0,5.0,15,0.00,,---,0.00,VWS V14.00,2013-06-10 21:32:00,
2013-06-10 16:33:00,92.1,36.1,29.68,ENE,65,4.0,6.0,14,0.00,,---,0.00,VWS V14.00,2013-06-10 21:33:00,
2013-06-10 16:35:00,91.6,37.5,29.68,ENE,58,2.0,8.0,15,0.00,,---,0.00,VWS V14.00,2013-06-10 21:35:00,
2013-06-10 16:37:00,91.6,39.1,29.68,NE,35,2.0,8.0,16,0.00,,---,0.00,VWS V14.00,2013-06-10 21:37:00,
2013-06-10 16:38:00,91.6,39.1,29.68,NE,35,0.0,8.0,16,0.00,,---,0.00,VWS V14.00,2013-06-10 21:38:00,
2013-06-10 16:41:00,91.6,39.1,29.68,NNE,28,7.0,11.0,16,0.00,,---,0.00,VWS V14.00,2013-06-10 21:41:00,
2013-06-10 16:42:00,91.4,39.0,29.68,NNE,18,0.0,11.0,16,0.00,,---,0.00,VWS V14.00,2013-06-10 21:42:00,
2013-06-10 16:43:00,91.4,39.0,29.68,NNE,18,0.0,11.0,16,0.00,,---,0.00,VWS V14.00,2013-06-10 21:43:00,
2013-06-10 16:46:00,91.6,37.5,29.67,NNE,21,0.0,11.0,15,0.00,,---,0.00,VWS V14.00,2013-06-10 21:46:00,
2013-06-10 16:47:00,91.6,37.5,29.67,NE,38,2.0,11.0,15,0.00,,---,0.00,VWS V14.00,2013-06-10 21:47:00,
2013-06-10 16:48:00,91.6,37.5,29.67,NE,38,1.0,11.0,15,0.00,,---,0.00,VWS V14.00,2013-06-10 21:48:00,
2013-06-10 16:49:00,91.8,39.3,29.67,NE,38,0.0,11.0,16,0.00,,---,0.00,VWS V14.00,2013-06-10 21:49:00,
2013-06-10 16:51:00,91.8,37.6,29.67,NE,38,0.0,11.0,15,0.00,,---,0.00,VWS V14.00,2013-06-10 21:51:00,
2013-06-10 16:53:00,92.1,37.9,29.67,NE,41,0.0,11.0,15,0.00,,---,0.00,VWS V14.00,2013-06-10 21:53:00,
2013-06-10 16:54:00,91.6,37.5,29.67,NE,41,2.0,11.0,15,0.00,,---,0.00,VWS V14.00,2013-06-10 21:54:00,
2013-06-10 16:56:00,91.2,37.2,29.67,NE,42,0.0,11.0,15,0.00,,---,0.00,VWS V14.00,2013-06-10 21:56:00,
2013-06-10 16:58:00,91.4,37.3,29.67,North,0,0.0,11.0,15,0.00,,---,0.00,VWS V14.00,2013-06-10 21:58:00,
2013-06-10 16:59:00,91.4,37.3,29.67,NNE,13,0.0,11.0,15,0.00,,---,0.00,VWS V14.00,2013-06-10 21:59:00,
2013-06-10 17:01:00,91.6,37.5,29.67,North,0,0.0,3.0,15,0.00,,---,0.00,VWS V14.00,2013-06-10 22:01:00,
2013-06-10 17:03:00,91.4,37.3,29.67,NNW,343,0.0,5.0,15,0.00,,---,0.00,VWS V14.00,2013-06-10 22:03:00,
2013-06-10 17:04:00,91.6,39.1,29.67,North,1,0.0,8.0,16,0.00,,---,0.00,VWS V14.00,2013-06-10 22:04:00,
2013-06-10 17:07:00,91.8,40.8,29.67,NNE,25,2.0,8.0,17,0.00,,---,0.00,VWS V14.00,2013-06-10 22:07:00,
2013-06-10 17:08:00,91.8,37.6,29.67,NE,41,6.0,8.0,15,0.00,,---,0.00,VWS V14.00,2013-06-10 22:08:00,
2013-06-10 17:09:00,91.6,39.1,29.67,NE,44,0.0,8.0,16,0.00,,---,0.00,VWS V14.00,2013-06-10 22:09:00,
2013-06-10 17:12:00,91.6,39.1,29.67,NE,35,0.0,8.0,16,0.00,,---,0.00,VWS V14.00,2013-06-10 22:12:00,
2013-06-10 17:13:00,91.4,37.3,29.67,NE,40,5.0,8.0,15,0.00,,---,0.00,VWS V14.00,2013-06-10 22:13:00,
2013-06-10 17:14:00,91.4,37.3,29.67,ENE,71,3.0,8.0,15,0.00,,---,0.00,VWS V14.00,2013-06-10 22:14:00,
2013-06-10 17:15:00,91.4,39.0,29.67,ENE,69,7.0,8.0,16,0.00,,---,0.00,VWS V14.00,2013-06-10 22:15:00,
2013-06-10 17:17:00,91.2,38.8,29.67,ESE,109,6.0,13.0,16,0.00,,---,0.00,VWS V14.00,2013-06-10 22:17:00,
2013-06-10 17:19:00,91.0,37.0,29.67,ENE,58,5.0,13.0,15,0.00,,---,0.00,VWS V14.00,2013-06-10 22:19:00,
2013-06-10 17:20:00,91.0,37.0,29.67,ENE,59,0.0,13.0,15,0.00,,---,0.00,VWS V14.00,2013-06-10 22:20:00,
2013-06-10 17:22:00,91.0,38.6,29.67,North,6,0.0,13.0,16,0.00,,---,0.00,VWS V14.00,2013-06-10 22:22:00,
2013-06-10 17:24:00,91.4,39.0,29.67,North,352,0.0,13.0,16,0.00,,---,0.00,VWS V14.00,2013-06-10 22:24:00,
2013-06-10 17:25:00,91.6,39.1,29.67,NE,55,2.0,13.0,16,0.00,,---,0.00,VWS V14.00,2013-06-10 22:25:00,
2013-06-10 17:27:00,91.6,39.1,29.67,NE,34,0.0,13.0,16,0.00,,---,0.00,VWS V14.00,2013-06-10 22:27:00,
2013-06-10 17:29:00,91.6,39.1,29.66,East,88,2.0,13.0,16,0.00,,---,0.00,VWS V14.00,2013-06-10 22:29:00,
2013-06-10 17:30:00,91.4,39.0,29.66,NE,45,1.0,6.0,16,0.00,,---,0.00,VWS V14.00,2013-06-10 22:30:00,
2013-06-10 17:32:00,91.8,39.3,29.66,ENE,66,1.0,7.0,16,0.00,,---,0.00,VWS V14.00,2013-06-10 22:32:00,
2013-06-10 17:34:00,91.8,37.6,29.66,ENE,78,0.0,7.0,15,0.00,,---,0.00,VWS V14.00,2013-06-10 22:34:00,
2013-06-10 17:36:00,91.8,39.3,29.66,East,85,2.0,7.0,16,0.00,,---,0.00,VWS V14.00,2013-06-10 22:36:00,
2013-06-10 17:37:00,92.1,37.9,29.66,NE,48,0.0,7.0,15,0.00,,---,0.00,VWS V14.00,2013-06-10 22:37:00,
2013-06-10 17:39:00,91.8,39.3,29.66,East,97,1.0,11.0,16,0.00,,---,0.00,VWS V14.00,2013-06-10 22:39:00,
2013-06-10 17:41:00,91.6,37.5,29.66,East,90,5.0,11.0,15,0.00,,---,0.00,VWS V14.00,2013-06-10 22:41:00,
2013-06-10 17:43:00,91.8,37.6,29.66,East,80,5.0,11.0,15,0.00,,---,0.00,VWS V14.00,2013-06-10 22:43:00,
2013-06-10 17:44:00,92.1,37.9,29.66,NNE,31,0.0,11.0,15,0.00,,---,0.00,VWS V14.00,2013-06-10 22:44:00,
2013-06-10 17:45:00,92.1,37.9,29.66,NE,56,2.0,11.0,15,0.00,,---,0.00,VWS V14.00,2013-06-10 22:45:00,
2013-06-10 17:46:00,91.8,37.6,29.66,NE,56,3.0,11.0,15,0.00,,---,0.00,VWS V14.00,2013-06-10 22:46:00,
2013-06-10 17:48:00,91.8,37.6,29.66,ENE,71,0.0,11.0,15,0.00,,---,0.00,VWS V14.00,2013-06-10 22:48:00,
2013-06-10 17:51:00,91.4,37.3,29.66,East,86,0.0,11.0,15,0.00,,---,0.00,VWS V14.00,2013-06-10 22:51:00,
2013-06-10 17:53:00,91.4,37.3,29.66,NNE,32,1.0,11.0,15,0.00,,---,0.00,VWS V14.00,2013-06-10 22:53:00,
2013-06-10 17:56:00,91.4,37.3,29.66,East,80,1.0,11.0,15,0.00,,---,0.00,VWS V14.00,2013-06-10 22:56:00,
2013-06-10 17:58:00,91.4,37.3,29.66,East,82,0.0,11.0,15,0.00,,---,0.00,VWS V14.00,2013-06-10 22:58:00,
2013-06-10 18:01:00,91.4,37.3,29.67,East,89,8.0,8.0,15,0.00,,---,0.00,VWS V14.00,2013-06-10 23:01:00,
2013-06-10 18:02:00,91.2,37.2,29.67,East,93,8.0,12.0,15,0.00,,---,0.00,VWS V14.00,2013-06-10 23:02:00,
2013-06-10 18:03:00,90.7,36.8,29.67,East,90,7.0,12.0,15,0.00,,---,0.00,VWS V14.00,2013-06-10 23:03:00,
2013-06-10 18:06:00,90.3,38.1,29.67,NE,48,0.0,12.0,16,0.00,,---,0.00,VWS V14.00,2013-06-10 23:06:00,
2013-06-10 18:07:00,90.5,38.2,29.67,NE,45,2.0,12.0,16,0.00,,---,0.00,VWS V14.00,2013-06-10 23:07:00,
2013-06-10 18:08:00,90.7,38.4,29.67,NE,52,4.0,12.0,16,0.00,,---,0.00,VWS V14.00,2013-06-10 23:08:00,
2013-06-10 18:11:00,90.5,34.8,29.67,NE,47,0.0,12.0,14,0.00,,---,0.00,VWS V14.00,2013-06-10 23:11:00,
2013-06-10 18:13:00,90.5,36.6,29.67,ESE,109,2.0,12.0,15,0.00,,---,0.00,VWS V14.00,2013-06-10 23:13:00,
2013-06-10 18:16:00,89.9,37.8,29.67,ESE,112,7.0,13.0,16,0.00,,---,0.00,VWS V14.00,2013-06-10 23:16:00,
2013-06-10 18:18:00,90.1,36.3,29.67,East,95,8.0,13.0,15,0.00,,---,0.00,VWS V14.00,2013-06-10 23:18:00,
2013-06-10 18:21:00,90.1,36.3,29.67,NE,42,0.0,13.0,15,0.00,,---,0.00,VWS V14.00,2013-06-10 23:21:00,
2013-06-10 18:23:00,89.9,36.1,29.67,East,85,5.0,13.0,15,0.00,,---,0.00,VWS V14.00,2013-06-10 23:23:00,
2013-06-10 18:26:00,90.3,36.4,29.67,East,88,0.0,13.0,15,0.00,,---,0.00,VWS V14.00,2013-06-10 23:26:00,
2013-06-10 18:28:00,90.1,36.3,29.67,NNE,18,1.0,13.0,15,0.00,,---,0.00,VWS V14.00,2013-06-10 23:28:00,
2013-06-10 18:29:00,90.1,34.5,29.68,NE,47,3.0,13.0,14,0.00,,---,0.00,VWS V14.00,2013-06-10 23:29:00,
2013-06-10 18:31:00,89.7,36.0,29.68,NE,44,2.0,10.0,15,0.00,,---,0.00,VWS V14.00,2013-06-10 23:31:00,
2013-06-10 18:33:00,90.1,36.3,29.68,ENE,71,1.0,10.0,15,0.00,,---,0.00,VWS V14.00,2013-06-10 23:33:00,
2013-06-10 18:34:00,90.1,36.3,29.68,ENE,72,0.0,10.0,15,0.00,,---,0.00,VWS V14.00,2013-06-10 23:34:00,
2013-06-10 18:37:00,90.3,34.7,29.68,ENE,72,0.0,10.0,14,0.00,,---,0.00,VWS V14.00,2013-06-10 23:37:00,
2013-06-10 18:38:00,90.3,36.4,29.68,ENE,62,4.0,10.0,15,0.00,,---,0.00,VWS V14.00,2013-06-10 23:38:00,
2013-06-10 18:39:00,90.3,36.4,29.68,East,82,4.0,10.0,15,0.00,,---,0.00,VWS V14.00,2013-06-10 23:39:00,
2013-06-10 18:42:00,90.1,36.3,29.68,NE,45,8.0,10.0,15,0.00,,---,0.00,VWS V14.00,2013-06-10 23:42:00,
2013-06-10 18:43:00,89.7,36.0,29.67,NE,51,0.0,10.0,15,0.00,,---,0.00,VWS V14.00,2013-06-10 23:43:00,
2013-06-10 18:44:00,89.7,36.0,29.67,NE,52,0.0,10.0,15,0.00,,---,0.00,VWS V14.00,2013-06-10 23:44:00,
2013-06-10 18:47:00,89.9,36.1,29.67,East,97,1.0,10.0,15,0.00,,---,0.00,VWS V14.00,2013-06-10 23:47:00,
2013-06-10 18:48:00,89.9,36.1,29.67,NE,55,3.0,10.0,15,0.00,,---,0.00,VWS V14.00,2013-06-10 23:48:00,
2013-06-10 18:49:00,89.9,36.1,29.67,ENE,62,2.0,10.0,15,0.00,,---,0.00,VWS V14.00,2013-06-10 23:49:00,
2013-06-10 18:52:00,89.7,34.2,29.67,NNE,16,5.0,10.0,14,0.00,,---,0.00,VWS V14.00,2013-06-10 23:52:00,
2013-06-10 18:53:00,89.9,34.4,29.67,NE,51,5.0,10.0,14,0.00,,---,0.00,VWS V14.00,2013-06-10 23:53:00,
2013-06-10 18:54:00,89.9,34.4,29.67,NE,51,6.0,10.0,14,0.00,,---,0.00,VWS V14.00,2013-06-10 23:54:00,
2013-06-10 18:57:00,89.7,36.0,29.67,NNE,30,0.0,10.0,15,0.00,,---,0.00,VWS V14.00,2013-06-10 23:57:00,
2013-06-10 18:59:00,89.7,36.0,29.67,NE,47,5.0,10.0,15,0.00,,---,0.00,VWS V14.00,2013-06-10 23:59:00,
2013-06-10 19:00:00,89.5,35.8,29.67,NE,47,0.0,0.0,15,0.00,,---,0.00,VWS V14.00,2013-06-11 00:00:00,
2013-06-10 19:05:00,89.3,35.6,29.67,NNE,14,0.0,0.0,15,0.00,,---,0.00,VWS V14.00,2013-06-11 00:05:00,
2013-06-10 19:10:00,88.8,36.9,29.67,NE,52,2.0,2.0,16,0.00,,---,0.00,VWS V14.00,2013-06-11 00:10:00,
2013-06-10 19:15:00,89.0,37.0,29.64,NE,45,1.0,8.0,16,0.00,,---,0.00,VWS V14.00,2013-06-11 00:15:00,
2013-06-10 19:16:00,88.8,36.9,29.64,ESE,102,2.0,8.0,16,0.00,,---,0.00,VWS V14.00,2013-06-11 00:16:00,
2013-06-10 19:20:00,89.0,38.6,29.64,ENE,71,3.0,8.0,17,0.00,,---,0.00,VWS V14.00,2013-06-11 00:20:00,
2013-06-10 19:21:00,88.8,38.4,29.64,NE,55,1.0,8.0,17,0.00,,---,0.00,VWS V14.00,2013-06-11 00:21:00,
2013-06-10 19:25:00,88.2,36.4,29.64,East,92,2.0,8.0,16,0.00,,---,0.00,VWS V14.00,2013-06-11 00:25:00,
2013-06-10 19:26:00,88.2,36.4,29.64,East,92,0.0,8.0,16,0.00,,---,0.00,VWS V14.00,2013-06-11 00:26:00,
2013-06-10 19:30:00,88.0,36.2,29.64,East,92,8.0,10.0,16,0.00,,---,0.00,VWS V14.00,2013-06-11 00:30:00,
2013-06-10 19:31:00,88.0,36.2,29.64,East,97,7.0,10.0,16,0.00,,---,0.00,VWS V14.00,2013-06-11 00:31:00,
2013-06-10 19:35:00,87.6,37.5,29.64,SE,124,6.0,10.0,17,0.00,,---,0.00,VWS V14.00,2013-06-11 00:35:00,
2013-06-10 19:36:00,87.6,35.9,29.64,SE,124,1.0,10.0,16,0.00,,---,0.00,VWS V14.00,2013-06-11 00:36:00,
2013-06-10 19:37:00,87.6,37.5,29.64,East,92,6.0,10.0,17,0.00,,---,0.00,VWS V14.00,2013-06-11 00:37:00,
2013-06-10 19:40:00,87.4,38.7,29.64,ENE,73,0.0,10.0,18,0.00,,---,0.00,VWS V14.00,2013-06-11 00:40:00,
2013-06-10 19:41:00,87.6,38.9,29.64,East,88,0.0,10.0,18,0.00,,---,0.00,VWS V14.00,2013-06-11 00:41:00,
2013-06-10 19:42:00,87.6,38.9,29.64,East,95,0.0,10.0,18,0.00,,---,0.00,VWS V14.00,2013-06-11 00:42:00,
2013-06-10 19:45:00,87.6,37.5,29.64,East,95,0.0,10.0,17,0.00,,---,0.00,VWS V14.00,2013-06-11 00:45:00,
2013-06-10 19:46:00,87.6,38.9,29.64,East,95,0.0,10.0,18,0.00,,---,0.00,VWS V14.00,2013-06-11 00:46:00,
2013-06-10 19:47:00,87.6,38.9,29.64,East,93,2.0,10.0,18,0.00,,---,0.00,VWS V14.00,2013-06-11 00:47:00,
2013-06-10 19:50:00,87.4,37.3,29.64,NE,47,4.0,10.0,17,0.00,,---,0.00,VWS V14.00,2013-06-11 00:50:00,
2013-06-10 19:51:00,87.4,37.3,29.64,NE,48,0.0,10.0,17,0.00,,---,0.00,VWS V14.00,2013-06-11 00:51:00,
2013-06-10 19:52:00,87.2,38.6,29.64,NE,55,0.0,10.0,18,0.00,,---,0.00,VWS V14.00,2013-06-11 00:52:00,
2013-06-10 19:53:00,87.2,38.6,29.64,East,86,3.0,10.0,18,0.00,,---,0.00,VWS V14.00,2013-06-11 00:53:00,
2013-06-10 19:56:00,87.0,38.4,29.64,East,86,0.0,10.0,18,0.00,,---,0.00,VWS V14.00,2013-06-11 00:56:00,
2013-06-10 19:57:00,86.7,38.2,29.64,NE,37,8.0,10.0,18,0.00,,---,0.00,VWS V14.00,2013-06-11 00:57:00,
2013-06-10 19:58:00,86.7,38.2,29.64,NNE,30,2.0,11.0,18,0.00,,---,0.00,VWS V14.00,2013-06-11 00:58:00,
2013-06-10 20:01:00,86.5,39.4,29.65,NE,48,0.0,0.0,19,0.00,,---,0.00,VWS V14.00,2013-06-11 01:01:00,
2013-06-10 20:02:00,86.5,38.0,29.65,East,88,2.0,7.0,18,0.00,,---,0.00,VWS V14.00,2013-06-11 01:02:00,
2013-06-10 20:03:00,86.5,39.4,29.65,East,90,6.0,7.0,19,0.00,,---,0.00,VWS V14.00,2013-06-11 01:03:00,
2013-06-10 20:06:00,86.3,39.2,29.65,East,85,7.0,8.0,19,0.00,,---,0.00,VWS V14.00,2013-06-11 01:06:00,
2013-06-10 20:07:00,86.1,39.1,29.65,ESE,106,0.0,10.0,19,0.00,,---,0.00,VWS V14.00,2013-06-11 01:07:00,
2013-06-10 20:08:00,85.9,38.9,29.65,East,86,5.0,10.0,19,0.00,,---,0.00,VWS V14.00,2013-06-11 01:08:00,
2013-06-10 20:11:00,85.5,38.6,29.65,East,90,0.0,10.0,19,0.00,,---,0.00,VWS V14.00,2013-06-11 01:11:00,
2013-06-10 20:12:00,85.5,39.9,29.65,East,93,1.0,10.0,20,0.00,,---,0.00,VWS V14.00,2013-06-11 01:12:00,
2013-06-10 20:13:00,85.5,39.9,29.65,East,88,5.0,10.0,20,0.00,,---,0.00,VWS V14.00,2013-06-11 01:13:00,
2013-06-10 20:16:00,85.3,39.7,29.59,East,83,0.0,10.0,20,0.00,,---,0.00,VWS V14.00,2013-06-11 01:16:00,
2013-06-10 20:17:00,85.3,39.7,29.59,East,83,0.0,10.0,20,0.00,,---,0.00,VWS V14.00,2013-06-11 01:17:00,
2013-06-10 20:18:00,85.1,39.6,29.59,East,85,2.0,10.0,20,0.00,,---,0.00,VWS V14.00,2013-06-11 01:18:00,
2013-06-10 20:19:00,85.1,39.6,29.59,East,86,2.0,10.0,20,0.00,,---,0.00,VWS V14.00,2013-06-11 01:19:00,
2013-06-10 20:22:00,84.7,40.5,29.59,East,93,5.0,10.0,21,0.00,,---,0.00,VWS V14.00,2013-06-11 01:22:00,
2013-06-10 20:24:00,84.5,39.1,29.59,ESE,102,0.0,10.0,20,0.00,,---,0.00,VWS V14.00,2013-06-11 01:24:00,
2013-06-10 20:27:00,84.5,39.1,29.59,East,97,5.0,10.0,20,0.00,,---,0.00,VWS V14.00,2013-06-11 01:27:00,
2013-06-10 20:28:00,84.5,39.1,29.59,East,86,6.0,10.0,20,0.00,,---,0.00,VWS V14.00,2013-06-11 01:28:00,
2013-06-10 20:29:00,84.3,40.2,29.61,ESE,107,7.0,10.0,21,0.00,,---,0.00,VWS V14.00,2013-06-11 01:29:00,
2013-06-10 20:32:00,84.1,38.7,29.61,East,86,4.0,8.0,20,0.00,,---,0.00,VWS V14.00,2013-06-11 01:32:00,
2013-06-10 20:33:00,84.1,37.4,29.61,East,88,2.0,8.0,19,0.00,,---,0.00,VWS V14.00,2013-06-11 01:33:00,
2013-06-10 20:34:00,84.0,38.7,29.61,East,85,0.0,8.0,20,0.00,,---,0.00,VWS V14.00,2013-06-11 01:34:00,
2013-06-10 20:37:00,83.8,38.5,29.61,East,92,0.0,8.0,20,0.00,,---,0.00,VWS V14.00,2013-06-11 01:37:00,
2013-06-10 20:38:00,83.8,38.5,29.61,East,92,1.0,8.0,20,0.00,,---,0.00,VWS V14.00,2013-06-11 01:38:00,
2013-06-10 20:39:00,83.6,39.6,29.61,East,90,3.0,8.0,21,0.00,,---,0.00,VWS V14.00,2013-06-11 01:39:00,
2013-06-10 20:40:00,83.4,39.4,29.61,East,90,0.0,8.0,21,0.00,,---,0.00,VWS V14.00,2013-06-11 01:40:00,
2013-06-10 20:43:00,83.2,39.2,29.61,East,86,0.0,8.0,21,0.00,,---,0.00,VWS V14.00,2013-06-11 01:43:00,
2013-06-10 20:44:00,83.0,39.1,29.61,East,89,2.0,8.0,21,0.00,,---,0.00,VWS V14.00,2013-06-11 01:44:00,
2013-06-10 20:45:00,83.0,39.1,29.61,East,89,1.0,8.0,21,0.00,,---,0.00,VWS V14.00,2013-06-11 01:45:00,
2013-06-10 20:48:00,82.8,40.1,29.61,ENE,75,6.0,10.0,22,0.00,,---,0.00,VWS V14.00,2013-06-11 01:48:00,
2013-06-10 20:50:00,82.6,39.9,29.61,ENE,73,1.0,10.0,22,0.00,,---,0.00,VWS V14.00,2013-06-11 01:50:00,
2013-06-10 20:53:00,82.4,39.8,29.61,East,88,3.0,10.0,22,0.00,,---,0.00,VWS V14.00,2013-06-11 01:53:00,
2013-06-10 20:54:00,82.4,40.9,29.61,East,88,0.0,10.0,23,0.00,,---,0.00,VWS V14.00,2013-06-11 01:54:00,
2013-06-10 20:55:00,82.2,40.8,29.61,East,88,0.0,10.0,23,0.00,,---,0.00,VWS V14.00,2013-06-11 01:55:00,
2013-06-10 20:58:00,81.6,40.2,29.61,East,89,0.0,10.0,23,0.00,,---,0.00,VWS V14.00,2013-06-11 01:58:00,
2013-06-10 20:59:00,81.6,40.2,29.62,East,85,1.0,10.0,23,0.00,,---,0.00,VWS V14.00,2013-06-11 01:59:00,
2013-06-10 21:01:00,81.6,41.3,29.62,East,88,2.0,4.0,24,0.00,,---,0.00,VWS V14.00,2013-06-11 02:01:00,
2013-06-10 21:03:00,81.4,41.2,29.62,East,88,0.0,5.0,24,0.00,,---,0.00,VWS V14.00,2013-06-11 02:03:00,
2013-06-10 21:04:00,81.4,41.2,29.62,East,90,0.0,5.0,24,0.00,,---,0.00,VWS V14.00,2013-06-11 02:04:00,
2013-06-10 21:06:00,81.2,41.0,29.62,East,90,0.0,5.0,24,0.00,,---,0.00,VWS V14.00,2013-06-11 02:06:00,
2013-06-10 21:08:00,81.1,40.9,29.62,East,80,1.0,11.0,24,0.00,,---,0.00,VWS V14.00,2013-06-11 02:08:00,
2013-06-10 21:10:00,81.1,40.9,29.62,NE,55,4.0,11.0,24,0.00,,---,0.00,VWS V14.00,2013-06-11 02:10:00,
2013-06-10 21:11:00,81.1,40.9,29.62,ENE,58,2.0,11.0,24,0.00,,---,0.00,VWS V14.00,2013-06-11 02:11:00,
2013-06-10 21:12:00,81.1,40.9,29.62,ENE,59,0.0,11.0,24,0.00,,---,0.00,VWS V14.00,2013-06-11 02:12:00,
2013-06-10 21:13:00,80.9,40.8,29.62,ENE,69,1.0,11.0,24,0.00,,---,0.00,VWS V14.00,2013-06-11 02:13:00,
2013-06-10 21:15:00,80.7,39.5,29.62,East,92,5.0,11.0,23,0.00,,---,0.00,VWS V14.00,2013-06-11 02:15:00,
2013-06-10 21:16:00,80.7,40.6,29.62,East,80,2.0,11.0,24,0.00,,---,0.00,VWS V14.00,2013-06-11 02:16:00,
2013-06-10 21:17:00,80.7,41.7,29.62,East,86,1.0,11.0,25,0.00,,---,0.00,VWS V14.00,2013-06-11 02:17:00,
2013-06-10 21:18:00,80.7,41.7,29.62,East,93,0.0,11.0,25,0.00,,---,0.00,VWS V14.00,2013-06-11 02:18:00,
2013-06-10 21:19:00,80.7,40.6,29.62,East,89,5.0,11.0,24,0.00,,---,0.00,VWS V14.00,2013-06-11 02:19:00,
2013-06-10 21:20:00,80.7,40.6,29.62,East,86,6.0,11.0,24,0.00,,---,0.00,VWS V14.00,2013-06-11 02:20:00,
2013-06-10 21:21:00,80.7,40.6,29.62,East,92,0.0,11.0,24,0.00,,---,0.00,VWS V14.00,2013-06-11 02:21:00,
2013-06-10 21:22:00,80.7,40.6,29.62,ENE,58,0.0,11.0,24,0.00,,---,0.00,VWS V14.00,2013-06-11 02:22:00,
2013-06-10 21:23:00,80.7,41.7,29.62,East,89,0.0,11.0,25,0.00,,---,0.00,VWS V14.00,2013-06-11 02:23:00,
2013-06-10 21:24:00,80.5,41.5,29.62,East,90,0.0,11.0,25,0.00,,---,0.00,VWS V14.00,2013-06-11 02:24:00,
2013-06-10 21:25:00,80.3,41.3,29.62,ENE,73,0.0,11.0,25,0.00,,---,0.00,VWS V14.00,2013-06-11 02:25:00,
2013-06-10 21:27:00,80.3,42.3,29.62,East,88,0.0,11.0,26,0.00,,---,0.00,VWS V14.00,2013-06-11 02:27:00,
2013-06-10 21:28:00,80.3,42.3,29.63,East,88,2.0,11.0,26,0.00,,---,0.00,VWS V14.00,2013-06-11 02:28:00,
2013-06-10 21:29:00,80.3,42.3,29.63,East,86,0.0,11.0,26,0.00,,---,0.00,VWS V14.00,2013-06-11 02:29:00,
2013-06-10 21:31:00,79.9,42.0,29.63,East,82,0.0,0.0,26,0.00,,---,0.00,VWS V14.00,2013-06-11 02:31:00,
2013-06-10 21:32:00,79.9,42.0,29.63,East,85,6.0,13.0,26,0.00,,---,0.00,VWS V14.00,2013-06-11 02:32:00,
2013-06-10 21:33:00,79.9,42.0,29.63,East,88,2.0,13.0,26,0.00,,---,0.00,VWS V14.00,2013-06-11 02:33:00,
2013-06-10 21:34:00,79.8,41.9,29.63,East,88,0.0,13.0,26,0.00,,---,0.00,VWS V14.00,2013-06-11 02:34:00,
2013-06-10 21:37:00,79.2,42.4,29.63,East,90,0.0,13.0,27,0.00,,---,0.00,VWS V14.00,2013-06-11 02:37:00,
2013-06-10 21:38:00,79.2,42.4,29.63,East,90,0.0,13.0,27,0.00,,---,0.00,VWS V14.00,2013-06-11 02:38:00,
2013-06-10 21:39:00,79.4,42.5,29.63,East,93,5.0,13.0,27,0.00,,---,0.00,VWS V14.00,2013-06-11 02:39:00,
2013-06-10 21:42:00,79.0,42.2,29.63,East,93,0.0,13.0,27,0.00,,---,0.00,VWS V14.00,2013-06-11 02:42:00,
2013-06-10 21:43:00,79.0,42.2,29.63,East,93,0.0,13.0,27,0.00,,---,0.00,VWS V14.00,2013-06-11 02:43:00,
2013-06-10 21:44:00,79.0,42.2,29.64,East,88,0.0,13.0,27,0.00,,---,0.00,VWS V14.00,2013-06-11 02:44:00,
2013-06-10 21:48:00,78.8,43.0,29.64,East,88,2.0,13.0,28,0.00,,---,0.00,VWS V14.00,2013-06-11 02:48:00,
2013-06-10 21:49:00,78.8,43.0,29.64,East,88,0.0,13.0,28,0.00,,---,0.00,VWS V14.00,2013-06-11 02:49:00,
2013-06-10 21:53:00,78.5,42.7,29.64,East,89,0.0,13.0,28,0.00,,---,0.00,VWS V14.00,2013-06-11 02:53:00,
2013-06-10 21:54:00,78.5,42.7,29.64,East,89,0.0,13.0,28,0.00,,---,0.00,VWS V14.00,2013-06-11 02:54:00,
2013-06-10 21:55:00,78.3,42.5,29.64,East,89,0.0,13.0,28,0.00,,---,0.00,VWS V14.00,2013-06-11 02:55:00,
2013-06-10 21:58:00,78.1,43.3,29.64,East,90,6.0,13.0,29,0.00,,---,0.00,VWS V14.00,2013-06-11 02:58:00,
2013-06-10 21:59:00,78.1,43.3,29.66,East,89,3.0,3.0,29,0.00,,---,0.00,VWS V14.00,2013-06-11 02:59:00,
2013-06-10 22:00:00,78.1,43.3,29.66,East,89,2.0,4.0,29,0.00,,---,0.00,VWS V14.00,2013-06-11 03:00:00,
2013-06-10 22:03:00,77.9,43.1,29.66,East,89,0.0,4.0,29,0.00,,---,0.00,VWS V14.00,2013-06-11 03:03:00,
2013-06-10 22:05:00,77.7,42.9,29.66,East,90,0.0,4.0,29,0.00,,---,0.00,VWS V14.00,2013-06-11 03:05:00,
2013-06-10 22:06:00,77.6,43.7,29.66,East,86,0.0,6.0,30,0.00,,---,0.00,VWS V14.00,2013-06-11 03:06:00,
2013-06-10 22:08:00,77.4,43.6,29.66,East,97,2.0,8.0,30,0.00,,---,0.00,VWS V14.00,2013-06-11 03:08:00,